Back to catalog

TIANMU-1 09

AliveWeatherSSO
NORAD 57401·PAYLOAD·🇨🇳 China

Launched Jul 20, 2023 from Jiuquan Satellite Launch Center

Loading…

Next Passes (next 24 hours)

TLE

FreshSource: Space-Track

Epoch: Sep 14, 2026, 13:38 UTC

1 57401U 23101C   26257.56813360  .00004845  00000-0  16590-3 0  9993
2 57401  97.2453 305.3242 0003892 153.8414 206.3025 15.30677096175315

Track TIANMU-1 09 in real time with AllMySat

Download on the App Store